WXM80 ListenWXM80 Stop

You find our weather info also at:

UK Metoffice

WeatherCloud

Weather Underground

Northeastern Weather Network

AWEKAS

Citizen Weather Observer Program (CWOP)

HAMweather, WeatherForYou, PWS Weather


Weather Underground History page Text

Daily Summary for August 10, 2016 Units:  English    Metric   Both
« Previous Day
Next Day »
Daily Weekly Monthly Yearly Custom
  High: Low: Average:
Temperature: 86.4 °F 74.1 °F 79.3 °F
Dew Point: 79.6 °F 70.1 °F 75.4 °F
Humidity: 96 % 79 % 88 %
Wind Speed: 7.2 mph 0.0 mph 1.4 mph
Wind Gust: 13.0 mph - -
Wind:- - South
Pressure: 30.18 in 30.05 in -
Precipitation: 0.12 in    
Historical Graphs
 
 
Tabular Data for August 10, 2016
Time Temperature Dew Point Pressure Wind Wind Speed Wind Gust Humidity Rainfall Rate (Hourly)
00:05 74.7 °F 70.2 °F 30.18 in Calm   1.2 mph 86 % 0.00 in
00:10 74.7 °F 70.2 °F 30.18 in SE 0.2 mph 2.3 mph 86 % 0.00 in
00:16 74.7 °F 70.2 °F 30.18 in SE 1.0 mph 4.0 mph 86 % 0.00 in
00:21 74.7 °F 70.2 °F 30.18 in Calm   2.0 mph 86 % 0.00 in
00:26 74.8 °F 70.3 °F 30.18 in Calm   2.0 mph 86 % 0.00 in
00:31 74.8 °F 70.3 °F 30.18 in SSE 1.0 mph 4.0 mph 86 % 0.00 in
00:36 74.8 °F 70.3 °F 30.18 in Calm   2.0 mph 86 % 0.00 in
00:41 74.7 °F 70.2 °F 30.18 in Calm   1.0 mph 86 % 0.00 in
00:46 74.7 °F 70.2 °F 30.18 in Calm   2.0 mph 86 % 0.00 in
00:50 74.7 °F 70.2 °F 30.18 in SSE 0.1 mph 1.2 mph 86 % 0.00 in
00:56 74.6 °F 70.1 °F 30.18 in Calm   1.0 mph 86 % 0.00 in
01:01 74.6 °F 70.1 °F 30.18 in Calm     86 % 0.00 in
01:11 74.5 °F 70.4 °F 30.18 in Calm   1.0 mph 87 % 0.00 in
01:16 74.5 °F 70.4 °F 30.18 in Calm   5.0 mph 87 % 0.00 in
01:21 74.5 °F 70.4 °F 30.18 in Calm   2.0 mph 87 % 0.00 in
01:26 74.5 °F 70.4 °F 30.18 in Calm   3.0 mph 87 % 0.00 in
01:31 74.4 °F 70.3 °F 30.18 in Calm   3.0 mph 87 % 0.00 in
01:36 74.4 °F 70.3 °F 30.18 in Calm   2.0 mph 87 % 0.00 in
01:41 74.4 °F 70.3 °F 30.18 in Calm   2.0 mph 87 % 0.00 in
01:46 74.4 °F 70.3 °F 30.18 in Calm   1.0 mph 87 % 0.00 in
01:56 74.2 °F 70.4 °F 30.17 in Calm   1.0 mph 88 % 0.00 in
02:01 74.2 °F 70.4 °F 30.17 in Calm     88 % 0.00 in
02:06 74.2 °F 70.4 °F 30.17 in Calm   1.0 mph 88 % 0.00 in
02:11 74.2 °F 70.4 °F 30.17 in Calm     88 % 0.00 in
02:16 74.1 °F 70.4 °F 30.17 in Calm   1.0 mph 88 % 0.00 in
02:21 74.1 °F 70.6 °F 30.17 in Calm     89 % 0.00 in
02:26 74.1 °F 70.6 °F 30.17 in Calm     89 % 0.00 in
02:31 74.2 °F 70.7 °F 30.17 in Calm     89 % 0.00 in
02:36 74.2 °F 70.7 °F 30.17 in Calm   1.0 mph 89 % 0.00 in
02:41 74.2 °F 70.7 °F 30.17 in Calm   1.0 mph 89 % 0.00 in
02:46 74.3 °F 70.8 °F 30.17 in Calm     89 % 0.00 in
02:51 74.3 °F 70.8 °F 30.16 in Calm   1.0 mph 89 % 0.00 in
02:56 74.4 °F 70.9 °F 30.16 in Calm   1.0 mph 89 % 0.00 in
03:01 74.5 °F 70.7 °F 30.16 in Calm   1.2 mph 88 % 0.00 in
03:06 74.6 °F 70.8 °F 30.16 in SE 0.1 mph 1.2 mph 88 % 0.00 in
03:11 74.7 °F 70.9 °F 30.16 in WSW 0.2 mph 3.5 mph 88 % 0.00 in
03:16 74.7 °F 70.9 °F 30.16 in SE 0.1 mph 1.2 mph 88 % 0.00 in
03:21 74.8 °F 71.0 °F 30.16 in Calm   1.2 mph 88 % 0.00 in
03:26 74.9 °F 71.1 °F 30.16 in SE 0.2 mph 1.2 mph 88 % 0.00 in
03:31 75.0 °F 71.2 °F 30.16 in SW 0.2 mph 4.6 mph 88 % 0.00 in
03:36 75.0 °F 71.2 °F 30.16 in SW 0.2 mph 1.2 mph 88 % 0.00 in
03:41 75.1 °F 71.0 °F 30.16 in SW 0.3 mph 1.2 mph 87 % 0.00 in
03:46 75.2 °F 71.1 °F 30.15 in WSW 1.0 mph 4.0 mph 87 % 0.00 in
03:51 75.2 °F 71.1 °F 30.15 in SSW 0.1 mph 1.2 mph 87 % 0.00 in
03:57 75.3 °F 71.2 °F 30.15 in SSW 0.3 mph 1.2 mph 87 % 0.00 in
04:02 75.3 °F 71.2 °F 30.15 in SW 0.5 mph 3.5 mph 87 % 0.00 in
04:07 75.4 °F 71.3 °F 30.15 in SE 1.3 mph 6.0 mph 87 % 0.00 in
04:17 75.5 °F 71.7 °F 30.15 in SSE 0.5 mph 3.5 mph 88 % 0.00 in
04:22 75.5 °F 71.7 °F 30.15 in SSE 0.7 mph 4.6 mph 88 % 0.00 in
04:27 75.5 °F 71.7 °F 30.15 in South 0.9 mph 3.5 mph 88 % 0.00 in
04:32 75.5 °F 72.0 °F 30.15 in South 0.9 mph 2.3 mph 89 % 0.00 in
04:37 75.5 °F 72.0 °F 30.15 in SSE 0.2 mph 3.5 mph 89 % 0.00 in
04:42 75.4 °F 72.3 °F 30.15 in Calm   1.2 mph 90 % 0.00 in
04:48 75.3 °F 72.2 °F 30.14 in SSE 0.2 mph 1.2 mph 90 % 0.00 in
04:53 75.1 °F 72.3 °F 30.15 in SSE 0.3 mph 3.5 mph 91 % 0.00 in
04:58 74.9 °F 72.1 °F 30.15 in SE 1.5 mph 3.5 mph 91 % 0.00 in
05:03 74.8 °F 72.3 °F 30.15 in SE 0.5 mph 6.9 mph 92 % 0.00 in
05:13 74.5 °F 72.3 °F 30.15 in SE 1.8 mph 4.6 mph 93 % 0.00 in
05:18 74.4 °F 72.2 °F 30.15 in SSE 0.7 mph 2.3 mph 93 % 0.00 in
05:23 74.4 °F 72.6 °F 30.15 in SE 1.2 mph 3.5 mph 94 % 0.00 in
05:28 74.4 °F 72.6 °F 30.15 in SE 0.1 mph 1.2 mph 94 % 0.00 in
05:33 74.3 °F 72.5 °F 30.15 in SSE 0.7 mph 3.5 mph 94 % 0.00 in
05:39 74.3 °F 72.5 °F 30.15 in SSE 0.3 mph 1.2 mph 94 % 0.00 in
05:44 74.3 °F 72.5 °F 30.15 in SSE 0.4 mph 2.3 mph 94 % 0.00 in
05:49 74.3 °F 72.5 °F 30.15 in SE 0.4 mph 3.0 mph 94 % 0.00 in
05:54 74.3 °F 72.5 °F 30.15 in SSE 1.0 mph 3.5 mph 94 % 0.00 in
05:59 74.3 °F 72.5 °F 30.15 in Calm   2.3 mph 94 % 0.00 in
06:04 74.2 °F 72.4 °F 30.15 in SSE 0.4 mph 2.0 mph 94 % 0.00 in
06:09 74.2 °F 72.4 °F 30.15 in SE 0.7 mph 2.3 mph 94 % 0.00 in
06:14 74.2 °F 72.4 °F 30.15 in SSW 0.3 mph 1.2 mph 94 % 0.00 in
06:19 74.2 °F 72.4 °F 30.15 in South 0.2 mph 1.2 mph 94 % 0.00 in
06:24 74.3 °F 72.5 °F 30.15 in SE 0.4 mph 3.5 mph 94 % 0.00 in
06:30 74.3 °F 72.5 °F 30.16 in SE 0.4 mph 1.2 mph 94 % 0.00 in
06:35 74.3 °F 72.5 °F 30.16 in SE 0.2 mph 2.3 mph 94 % 0.00 in
06:40 74.4 °F 72.6 °F 30.15 in SE 0.8 mph 3.5 mph 94 % 0.00 in
06:45 74.4 °F 72.6 °F 30.15 in SE 0.3 mph 2.3 mph 94 % 0.00 in
06:50 74.5 °F 72.7 °F 30.15 in Calm   1.0 mph 94 % 0.00 in
06:55 74.6 °F 72.8 °F 30.15 in SE 0.5 mph 3.5 mph 94 % 0.00 in
07:00 74.7 °F 72.9 °F 30.15 in SE 0.2 mph 2.0 mph 94 % 0.00 in
07:05 74.8 °F 73.0 °F 30.15 in SE 0.1 mph 1.2 mph 94 % 0.00 in
07:10 74.9 °F 73.4 °F 30.15 in Calm   1.2 mph 95 % 0.00 in
07:15 75.1 °F 73.6 °F 30.15 in SSE 0.4 mph 2.3 mph 95 % 0.00 in
07:21 75.2 °F 73.4 °F 30.15 in Calm   3.0 mph 94 % 0.00 in
07:26 75.4 °F 73.6 °F 30.15 in Calm   1.0 mph 94 % 0.00 in
07:31 75.5 °F 73.7 °F 30.14 in Calm   3.0 mph 94 % 0.00 in
07:36 75.7 °F 73.8 °F 30.14 in Calm   3.0 mph 94 % 0.00 in
07:41 75.8 °F 73.9 °F 30.15 in Calm   2.0 mph 94 % 0.00 in
07:46 76.0 °F 74.1 °F 30.15 in Calm   3.0 mph 94 % 0.00 in
07:51 76.1 °F 74.2 °F 30.15 in Calm   2.0 mph 94 % 0.00 in
07:56 76.2 °F 74.3 °F 30.15 in Calm   4.0 mph 94 % 0.00 in
08:01 76.3 °F 74.4 °F 30.15 in Calm   1.2 mph 94 % 0.00 in
08:06 76.5 °F 74.6 °F 30.15 in WSW 0.6 mph 3.5 mph 94 % 0.00 in
08:11 76.6 °F 74.7 °F 30.15 in SW 0.2 mph 1.2 mph 94 % 0.00 in
08:16 76.9 °F 75.0 °F 30.16 in WSW 1.0 mph 5.0 mph 94 % 0.00 in
08:21 77.2 °F 75.3 °F 30.15 in SW 1.3 mph 3.5 mph 94 % 0.00 in
08:26 77.5 °F 75.3 °F 30.15 in WSW 2.2 mph 5.8 mph 93 % 0.00 in
08:31 77.9 °F 75.7 °F 30.15 in WSW 0.4 mph 3.0 mph 93 % 0.00 in
08:36 78.3 °F 75.8 °F 30.15 in South 3.1 mph 4.6 mph 92 % 0.00 in
08:41 78.6 °F 75.8 °F 30.15 in ESE 0.3 mph 2.3 mph 91 % 0.00 in
08:46 79.0 °F 75.8 °F 30.15 in SE 1.2 mph 2.3 mph 90 % 0.00 in
08:52 79.3 °F 75.8 °F 30.15 in SSW 4.5 mph 6.9 mph 89 % 0.00 in
09:02 79.8 °F 75.9 °F 30.15 in SSW 1.4 mph 3.5 mph 88 % 0.00 in
09:07 79.9 °F 75.7 °F 30.15 in South 2.0 mph 3.5 mph 87 % 0.00 in
09:12 80.0 °F 75.8 °F 30.15 in SSW 1.9 mph 3.5 mph 87 % 0.00 in
09:17 80.2 °F 76.0 °F 30.15 in SSW 2.0 mph 3.5 mph 87 % 0.00 in
09:22 80.3 °F 75.7 °F 30.15 in SW 1.4 mph 3.5 mph 86 % 0.00 in
09:27 80.5 °F 75.6 °F 30.15 in West 5.5 mph 9.0 mph 85 % 0.00 in
09:32 80.6 °F 75.7 °F 30.14 in SW 0.9 mph 11.5 mph 85 % 0.00 in
09:38 80.9 °F 76.0 °F 30.15 in SSW 3.6 mph 4.6 mph 85 % 0.00 in
09:43 81.1 °F 76.2 °F 30.14 in SE 1.5 mph 8.1 mph 85 % 0.00 in
09:48 81.6 °F 76.3 °F 30.14 in SSW 4.6 mph 5.8 mph 84 % 0.00 in
09:53 81.9 °F 76.6 °F 30.14 in South 1.9 mph 4.6 mph 84 % 0.00 in
09:58 82.1 °F 76.4 °F 30.14 in SSW 2.1 mph 3.5 mph 83 % 0.00 in
10:03 82.2 °F 76.2 °F 30.14 in SW 2.5 mph 5.8 mph 82 % 0.00 in
10:08 82.3 °F 76.3 °F 30.14 in SSW 2.4 mph 9.2 mph 82 % 0.00 in
10:13 82.4 °F 76.3 °F 30.14 in SE 3.7 mph 6.9 mph 82 % 0.00 in
10:18 82.4 °F 76.7 °F 30.14 in SW 0.5 mph 4.6 mph 83 % 0.00 in
10:23 82.4 °F 76.3 °F 30.14 in South 2.9 mph 7.0 mph 82 % 0.00 in
10:29 82.5 °F 76.8 °F 30.14 in SSW 3.2 mph 6.0 mph 83 % 0.00 in
10:34 82.6 °F 76.5 °F 30.14 in SSW 2.5 mph 4.6 mph 82 % 0.00 in
10:39 82.7 °F 76.6 °F 30.14 in SW 1.8 mph 5.8 mph 82 % 0.00 in
10:44 82.8 °F 76.7 °F 30.13 in SSW 2.4 mph 4.6 mph 82 % 0.00 in
10:49 82.9 °F 76.8 °F 30.14 in SSW 5.8 mph 8.1 mph 82 % 0.00 in
10:54 83.0 °F 76.6 °F 30.14 in South 3.7 mph 8.1 mph 81 % 0.00 in
10:59 83.0 °F 76.2 °F 30.14 in SSW 2.5 mph 8.1 mph 80 % 0.00 in
11:04 83.0 °F 76.2 °F 30.14 in SSW 3.8 mph 8.1 mph 80 % 0.00 in
11:09 83.1 °F 76.7 °F 30.14 in WSW 0.3 mph 3.5 mph 81 % 0.00 in
11:14 83.1 °F 76.7 °F 30.14 in SW 4.8 mph 6.9 mph 81 % 0.00 in
11:19 83.2 °F 76.8 °F 30.14 in SSW 2.0 mph 6.9 mph 81 % 0.00 in
11:24 83.3 °F 77.2 °F 30.14 in SSW 2.3 mph 8.1 mph 82 % 0.00 in
11:29 83.3 °F 77.2 °F 30.14 in SW 5.9 mph 5.9 mph 82 % 0.00 in
11:35 83.2 °F 76.4 °F 30.14 in SSE 2.5 mph 9.2 mph 80 % 0.00 in
11:40 83.3 °F 76.5 °F 30.13 in SSW 2.1 mph 5.8 mph 80 % 0.00 in
11:45 83.7 °F 77.2 °F 30.13 in SW 3.8 mph 9.2 mph 81 % 0.00 in
11:50 83.9 °F 77.1 °F 30.13 in South 1.8 mph 5.8 mph 80 % 0.00 in
11:55 83.8 °F 76.6 °F 30.13 in SSW 1.2 mph 3.0 mph 79 % 0.00 in
12:00 83.7 °F 76.9 °F 30.12 in SW 0.9 mph 3.5 mph 80 % 0.00 in
12:05 83.6 °F 76.8 °F 30.12 in SSW 3.0 mph 11.5 mph 80 % 0.00 in
12:10 83.7 °F 76.9 °F 30.12 in SSW 3.0 mph 6.0 mph 80 % 0.00 in
12:20 83.6 °F 76.8 °F 30.11 in SSW 3.2 mph 3.5 mph 80 % 0.00 in
12:26 83.7 °F 77.2 °F 30.11 in South 1.0 mph 7.0 mph 81 % 0.00 in
12:31 83.8 °F 77.7 °F 30.11 in South 1.0 mph 8.0 mph 82 % 0.00 in
12:36 83.8 °F 77.0 °F 30.11 in South 2.0 mph 6.0 mph 80 % 0.00 in
12:41 84.0 °F 77.5 °F 30.10 in South 2.0 mph 7.0 mph 81 % 0.00 in
12:46 84.1 °F 77.3 °F 30.10 in South 3.0 mph 12.0 mph 80 % 0.00 in
12:51 84.3 °F 77.8 °F 30.10 in SSW 2.0 mph 13.0 mph 81 % 0.00 in
12:55 84.4 °F 77.6 °F 30.10 in SSW 3.0 mph 12.0 mph 80 % 0.00 in
13:00 84.5 °F 77.6 °F 30.10 in SE 0.9 mph 2.3 mph 80 % 0.00 in
13:06 84.5 °F 77.6 °F 30.10 in South 2.0 mph 8.0 mph 80 % 0.00 in
13:11 84.4 °F 77.6 °F 30.10 in South 1.0 mph 5.0 mph 80 % 0.00 in
13:15 84.5 °F 77.6 °F 30.10 in South 5.1 mph 11.5 mph 80 % 0.00 in
13:21 84.5 °F 78.0 °F 30.09 in SSW 5.0 mph 7.0 mph 81 % 0.00 in
13:26 84.5 °F 78.0 °F 30.09 in SSW 3.0 mph 8.0 mph 81 % 0.00 in
13:30 84.5 °F 77.6 °F 30.09 in SW 2.3 mph 6.9 mph 80 % 0.00 in
13:36 84.5 °F 77.6 °F 30.08 in SSW 5.0 mph 10.0 mph 80 % 0.00 in
13:41 84.4 °F 77.6 °F 30.08 in SSW 4.8 mph 10.4 mph 80 % 0.00 in
13:46 84.4 °F 77.9 °F 30.08 in SW 1.0 mph 7.0 mph 81 % 0.00 in
13:51 84.3 °F 77.8 °F 30.08 in SW 1.6 mph 3.5 mph 81 % 0.00 in
13:56 84.3 °F 77.8 °F 30.09 in SW 3.9 mph 9.2 mph 81 % 0.00 in
14:01 84.3 °F 77.8 °F 30.08 in SSW 1.8 mph 3.5 mph 81 % 0.00 in
14:06 84.2 °F 77.7 °F 30.09 in South 2.1 mph 3.5 mph 81 % 0.00 in
14:11 84.1 °F 77.6 °F 30.09 in South 4.3 mph 8.1 mph 81 % 0.00 in
14:16 83.9 °F 77.8 °F 30.08 in SSW 3.4 mph 8.1 mph 82 % 0.00 in
14:21 83.7 °F 78.0 °F 30.08 in SW 1.4 mph 2.3 mph 83 % 0.00 in
14:26 83.6 °F 78.2 °F 30.07 in SSW 2.0 mph 4.6 mph 84 % 0.00 in
14:32 83.4 °F 78.4 °F 30.07 in SSW 3.0 mph 4.6 mph 85 % 0.00 in
14:37 83.2 °F 78.2 °F 30.08 in WSW 2.9 mph 4.6 mph 85 % 0.00 in
14:42 82.9 °F 77.9 °F 30.08 in SW 5.3 mph 8.0 mph 85 % 0.00 in
14:52 83.3 °F 79.0 °F 30.08 in WSW 4.6 mph 11.5 mph 87 % 0.00 in
14:57 83.9 °F 79.6 °F 30.08 in SSW 3.8 mph 11.5 mph 87 % 0.00 in
15:02 84.7 °F 79.3 °F 30.07 in SW 5.7 mph 9.2 mph 84 % 0.00 in
15:07 85.3 °F 79.2 °F 30.07 in SSW 7.2 mph 10.4 mph 82 % 0.00 in
15:12 85.4 °F 79.3 °F 30.07 in East 2.0 mph 8.1 mph 82 % 0.00 in
15:17 85.5 °F 79.0 °F 30.07 in SW 5.7 mph 8.1 mph 81 % 0.00 in
15:23 85.6 °F 79.5 °F 30.07 in SSE 5.0 mph 5.0 mph 82 % 0.00 in
15:33 85.7 °F 79.2 °F 30.07 in SSW 3.5 mph 11.5 mph 81 % 0.00 in
15:38 85.9 °F 79.4 °F 30.07 in Calm   3.5 mph 81 % 0.00 in
15:43 86.0 °F 79.5 °F 30.07 in SE 1.7 mph 4.0 mph 81 % 0.00 in
15:48 86.1 °F 79.6 °F 30.07 in SW 3.0 mph 5.0 mph 81 % 0.00 in
15:53 86.3 °F 79.4 °F 30.07 in ESE 2.2 mph 3.5 mph 80 % 0.00 in
15:58 86.3 °F 79.4 °F 30.07 in SSW 1.9 mph 3.5 mph 80 % 0.00 in
16:03 86.2 °F 79.3 °F 30.07 in SSW 2.5 mph 3.5 mph 80 % 0.00 in
16:08 86.2 °F 79.3 °F 30.07 in SSW 2.8 mph 6.0 mph 80 % 0.00 in
16:13 86.2 °F 79.3 °F 30.07 in SSW 2.6 mph 5.8 mph 80 % 0.00 in
16:18 86.2 °F 79.3 °F 30.07 in WSW 1.7 mph 4.6 mph 80 % 0.00 in
16:23 86.4 °F 79.5 °F 30.07 in SW 1.9 mph 3.5 mph 80 % 0.00 in
16:29 86.4 °F 79.1 °F 30.07 in SE 0.2 mph 3.5 mph 79 % 0.00 in
16:34 86.3 °F 79.4 °F 30.07 in SE 0.1 mph 5.8 mph 80 % 0.00 in
16:39 86.2 °F 78.9 °F 30.07 in South 1.7 mph 3.5 mph 79 % 0.00 in
16:44 85.9 °F 79.0 °F 30.07 in SSE 1.4 mph 3.5 mph 80 % 0.00 in
16:49 85.7 °F 78.8 °F 30.07 in SE 3.4 mph 7.0 mph 80 % 0.00 in
16:59 85.3 °F 78.8 °F 30.07 in SSW 2.9 mph 4.0 mph 81 % 0.00 in
17:04 85.2 °F 78.7 °F 30.07 in South 2.9 mph 4.6 mph 81 % 0.00 in
17:09 85.0 °F 78.5 °F 30.07 in SSE 1.3 mph 4.6 mph 81 % 0.00 in
17:14 84.7 °F 78.6 °F 30.07 in SSW 1.5 mph 4.6 mph 82 % 0.00 in
17:25 84.4 °F 78.3 °F 30.07 in SSE 2.2 mph 4.6 mph 82 % 0.00 in
17:30 84.2 °F 78.5 °F 30.07 in SW 1.9 mph 3.5 mph 83 % 0.00 in
17:35 84.0 °F 78.3 °F 30.07 in SSW 3.1 mph 6.9 mph 83 % 0.00 in
17:40 83.8 °F 78.1 °F 30.07 in SSE 4.0 mph 7.0 mph 83 % 0.00 in
17:45 83.3 °F 78.0 °F 30.07 in SSE 1.2 mph 4.6 mph 84 % 0.00 in
17:50 83.2 °F 77.9 °F 30.07 in South 1.7 mph 3.5 mph 84 % 0.00 in
17:55 83.2 °F 77.9 °F 30.07 in SSE 2.7 mph 9.2 mph 84 % 0.00 in
18:00 83.1 °F 78.1 °F 30.07 in SSW 2.8 mph 6.9 mph 85 % 0.00 in
18:05 83.0 °F 78.0 °F 30.07 in SSE 2.2 mph 3.5 mph 85 % 0.00 in
18:10 82.9 °F 77.9 °F 30.06 in WSW 2.4 mph 5.8 mph 85 % 0.00 in
18:16 82.7 °F 78.1 °F 30.06 in South 1.0 mph 8.0 mph 86 % 0.00 in
18:21 82.6 °F 78.3 °F 30.07 in South 5.0 mph 10.0 mph 87 % 0.00 in
18:26 82.4 °F 77.8 °F 30.06 in SSW 2.0 mph 7.0 mph 86 % 0.00 in
18:31 82.2 °F 77.6 °F 30.07 in SSW 2.0 mph 5.0 mph 86 % 0.00 in
18:36 82.0 °F 77.7 °F 30.06 in SSW 3.0 mph 7.0 mph 87 % 0.00 in
18:46 81.1 °F 77.9 °F 30.06 in South 2.0 mph 4.0 mph 90 % 0.00 in
18:51 80.9 °F 78.0 °F 30.07 in South 1.0 mph 3.0 mph 91 % 0.00 in
18:56 80.6 °F 77.8 °F 30.06 in South 1.0 mph 5.0 mph 91 % 0.00 in
19:01 80.3 °F 77.8 °F 30.06 in SW 0.2 mph 1.2 mph 92 % 0.10 in
19:06 80.0 °F 77.4 °F 30.06 in South 1.0 mph 4.0 mph 92 % 0.00 in
19:11 79.8 °F 77.2 °F 30.06 in South 1.0 mph 7.0 mph 92 % 0.00 in
19:16 79.7 °F 77.5 °F 30.06 in SW 1.0 mph 3.0 mph 93 % 0.00 in
19:21 79.6 °F 77.4 °F 30.06 in SSW 1.0 mph 3.0 mph 93 % 0.00 in
19:26 79.5 °F 77.3 °F 30.06 in SSW 2.0 mph 4.0 mph 93 % 0.00 in
19:31 79.4 °F 77.2 °F 30.06 in SSW 1.0 mph 4.0 mph 93 % 0.00 in
19:36 79.3 °F 77.1 °F 30.06 in South 1.0 mph 2.0 mph 93 % 0.00 in
19:41 79.2 °F 77.3 °F 30.06 in SSW 3.0 mph 7.0 mph 94 % 0.00 in
19:46 79.1 °F 77.2 °F 30.06 in SW 3.0 mph 7.0 mph 94 % 0.00 in
19:51 79.0 °F 77.2 °F 30.06 in Calm   7.0 mph 94 % 0.00 in
19:56 79.0 °F 77.1 °F 30.06 in SSW 1.0 mph 5.0 mph 94 % 0.01 in
20:01 78.9 °F 77.0 °F 30.06 in SSW 1.7 mph 4.6 mph 94 % 0.01 in
20:06 78.7 °F 76.8 °F 30.05 in SW 1.0 mph 5.0 mph 94 % 0.00 in
20:11 78.7 °F 76.8 °F 30.06 in SW 1.0 mph 2.0 mph 94 % 0.00 in
20:16 78.6 °F 76.7 °F 30.06 in Calm   3.0 mph 94 % 0.00 in
20:21 78.6 °F 77.0 °F 30.06 in Calm   3.0 mph 95 % 0.00 in
20:26 78.6 °F 77.0 °F 30.06 in Calm   3.0 mph 95 % 0.00 in
20:31 78.6 °F 77.0 °F 30.06 in Calm   3.0 mph 95 % 0.00 in
20:36 78.6 °F 77.0 °F 30.06 in SSW 1.0 mph 5.0 mph 95 % 0.00 in
20:41 78.5 °F 76.9 °F 30.06 in South 1.0 mph 4.0 mph 95 % 0.00 in
20:46 78.5 °F 76.9 °F 30.07 in SSW 1.0 mph 3.0 mph 95 % 0.00 in
20:51 78.5 °F 76.9 °F 30.07 in South 1.0 mph 4.0 mph 95 % 0.00 in
20:56 78.4 °F 76.8 °F 30.07 in South 1.0 mph 4.0 mph 95 % 0.00 in
21:01 78.4 °F 76.8 °F 30.07 in SSW 1.9 mph 4.6 mph 95 % 0.01 in
21:06 78.4 °F 76.8 °F 30.07 in South 1.0 mph 5.0 mph 95 % 0.00 in
21:11 78.4 °F 76.8 °F 30.07 in Calm   3.0 mph 95 % 0.00 in
21:16 78.3 °F 76.7 °F 30.07 in SSW 1.0 mph 5.0 mph 95 % 0.00 in
21:21 78.3 °F 76.7 °F 30.07 in SSW 0.6 mph 2.3 mph 95 % 0.01 in
21:26 78.2 °F 76.6 °F 30.07 in SSW 1.0 mph 4.0 mph 95 % 0.00 in
21:31 78.2 °F 76.6 °F 30.07 in SSE 1.0 mph 5.0 mph 95 % 0.00 in
21:36 78.1 °F 76.9 °F 30.07 in SSE 0.7 mph 1.2 mph 96 % 0.01 in
21:41 78.1 °F 76.9 °F 30.07 in South 1.0 mph 3.0 mph 96 % 0.00 in
21:46 78.0 °F 76.8 °F 30.07 in SSE 1.0 mph 4.0 mph 96 % 0.00 in
21:51 78.0 °F 76.5 °F 30.07 in SSE 0.6 mph 3.5 mph 95 % 0.00 in
21:56 78.0 °F 76.5 °F 30.07 in SSE 1.0 mph 3.0 mph 95 % 0.00 in
22:01 77.9 °F 76.4 °F 30.07 in SSE 1.0 mph 4.6 mph 95 % 0.00 in
22:06 77.9 °F 76.4 °F 30.07 in SSW 1.0 mph 3.5 mph 95 % 0.00 in
22:11 77.9 °F 76.7 °F 30.07 in South 0.7 mph 2.3 mph 96 % 0.00 in
22:21 77.9 °F 76.7 °F 30.07 in SW 1.9 mph 3.5 mph 96 % 0.00 in
22:26 77.8 °F 76.6 °F 30.07 in SW 0.8 mph 4.6 mph 96 % 0.00 in
22:31 77.8 °F 76.6 °F 30.07 in SSE 1.4 mph 3.5 mph 96 % 0.00 in
22:36 77.8 °F 76.6 °F 30.07 in South 2.7 mph 5.0 mph 96 % 0.00 in
22:41 77.8 °F 76.6 °F 30.07 in SSW 1.0 mph 1.2 mph 96 % 0.00 in
22:46 77.8 °F 76.6 °F 30.07 in SSW 1.3 mph 3.5 mph 96 % 0.00 in
22:52 77.8 °F 76.6 °F 30.07 in WSW 0.3 mph 3.5 mph 96 % 0.00 in
22:57 77.8 °F 76.6 °F 30.07 in SW 1.9 mph 4.6 mph 96 % 0.00 in
23:02 77.8 °F 76.6 °F 30.07 in SE 0.9 mph 3.5 mph 96 % 0.00 in
23:07 77.8 °F 76.6 °F 30.07 in South 2.5 mph 4.6 mph 96 % 0.00 in
23:12 77.8 °F 76.6 °F 30.07 in WSW 1.2 mph 6.9 mph 96 % 0.00 in
23:17 77.8 °F 76.6 °F 30.07 in SW 1.0 mph 3.0 mph 96 % 0.00 in
23:22 77.8 °F 76.6 °F 30.07 in SW 1.4 mph 2.0 mph 96 % 0.00 in
23:27 77.8 °F 76.6 °F 30.07 in West 0.2 mph 3.5 mph 96 % 0.00 in
23:32 77.8 °F 76.6 °F 30.07 in South 1.7 mph 3.5 mph 96 % 0.00 in
23:37 77.7 °F 76.5 °F 30.07 in South 1.2 mph 3.5 mph 96 % 0.00 in
23:43 77.7 °F 76.5 °F 30.07 in Calm   2.3 mph 96 % 0.00 in
23:48 77.7 °F 76.5 °F 30.07 in SSW 0.9 mph 2.3 mph 96 % 0.00 in
23:53 77.6 °F 76.4 °F 30.07 in SSW 0.3 mph 2.3 mph 96 % 0.00 in
23:58 77.6 °F 76.4 °F 30.07 in WSW 1.1 mph 3.5 mph 96 % 0.00 in
Crab Meadow Weather
Compliments of Weather Underground - 3 mb

Script developed by  Jim McMurry - jmcmurry@mwt.net Adapted for the template by  Wim van der Kuil - Leuven-Template.eu

Astronomy: Pluto is not a planet, because it does not have a fixed orbit and it's orbit comes in between the orbit of another planet (Neptune).